Temp
63 63 62 62 62 61 61 61 60 60 59 58 57 56 57 57 57 58 57 58 59 59 59 58 59 59 60 58 57 59 58 56 56 56 57 57 56 57 58 57 56 57
62 63 63 62 61 61 61 62 61 61 60 59 59 58 57 57 58 58 57 58 58 58 58 58 58 57 57 57 56 57 56 56 57 60 59 58 56 56 56 56 56 56
62 62 62 61 61 59 61 61 61 61 60 61 61 60 59 57 57 57 56 56 57 58 58 57 57 56 56 55 55 56 56 55 57 56 58 57 56 57 55 56 57 57
62 63 63 62 62 62 61 61 61 61 61 61 61 61 60 59 56 56 57 59 57 57 56 57 57 56 56 55 55 56 55 55 56 56 57 55 56 56 55 57 57 57
61 61 62 63 63 63 63 63 62 62 62 62 61 59 59 57 56 56 56 56 56 56 56 56 56 55 55 55 55 55 56 55 55 56 56 55 55 57 55 57 56 56
60 61 62 63 63 63 63 64 63 63 62 61 61 59 58 57 57 57 56 55 56 57 56 55 55 56 55 55 55 55 56 57 55 56 56 55 55 55 59 57 56 56
60 62 63 63 63 64 64 63 63 63 63 62 61 59 59 58 57 56 56 56 56 57 56 55 56 55 56 55 55 55 56 55 55 55 55 55 55 55 55 56 56 56
62 62 63 63 63 63 63 63 63 62 62 62 62 60 61 60 59 57 57 57 57 57 56 56 56 55 55 55 55 55 55 57 55 54 54 54 54 55 54 57 54 56
62 62 62 63 62 62 62 61 62 62 63 63 62 61 61 62 61 59 57 56 57 57 56 56 56 55 54 55 54 54 55 55 55 54 54 54 55 54 55 54 55 55
61 60 60 61 61 60 61 62 62 63 63 63 63 62 62 62 62 61 59 57 58 57 57 56 56 57 56 56 57 57 56 56 55 55 55 55 55 55 55 55 54 55
60 60 60 59 60 59 60 62 63 63 63 64 63 63 62 61 61 61 60 60 60 59 58 57 58 58 58 56 56 56 57 56 55 54 54 55 56 56 59 55 55 56
58 58 58 59 59 60 61 61 62 61 61 61 63 62 59 59 60 59 61 61 61 60 60 59 60 59 59 58 57 56 56 55 54 54 54 54 54 55 55 55 54 54
57 57 57 57 57 58 60 60 62 62 62 62 62 61 61 60 60 60 60 61 62 61 61 61 60 59 58 57 57 57 57 56 55 56 55 55 54 54 54 54 54 54
57 58 58 57 58 58 58 58 59 60 62 61 60 61 62 62 60 61 59 60 61 60 60 58 58 57 56 56 56 57 56 56 57 57 56 55 55 54 54 54 54 54
56 57 57 57 58 57 57 56 57 56 56 57 58 60 60 58 58 58 57 57 57 58 58 58 59 59 58 58 58 57 57 57 57 57 57 56 54 54 54 54 54 54
57 57 57 57 57 56 55 55 56 56 57 57 57 56 56 58 58 58 59 58 58 56 57 58 58 57 56 54 56 58 57 58 56 55 54 55 54 53 53 53 54 54
55 56 56 56 55 54 54 55 55 55 55 55 55 55 56 56 58 58 57 57 58 57 55 55 55 54 44 44 48 52 57 56 55 54 53 53 53 53 53 52 52 54
55 55 55 55 55 54 54 55 54 54 55 54 54 55 55 56 56 57 57 56 56 55 55 55 55 48 40 43 45 47 52 56 55 55 54 54 54 53 53 52 52 53
56 55 54 54 54 55 54 54 54 53 54 54 54 53 54 55 55 55 54 54 55 55 55 54 54 41 40 41 42 42 45 53 56 55 54 54 54 54 54 53 53 53
57 56 55 54 54 54 53 53 52 51 51 51 52 52 52 52 53 53 53 54 53 54 54 52 53 43 40 41 42 42 41 47 55 54 54 54 54 54 55 54 54 54
56 54 54 54 54 54 53 52 52 51 52 51 51 52 53 52 53 52 53 53 52 51 50 52 54 42 41 41 41 41 40 42 52 54 54 54 54 54 55 55 55 55
54 52 52 52 53 53 52 52 51 51 51 51 50 49 50 50 50 51 52 52 51 50 50 50 50 40 40 40 40 40 40 46 50 51 53 53 54 54 54 54 54 54
52 52 52 52 51 52 52 52 52 51 51 50 51 50 51 51 52 52 52 52 51 50 50 52 50 42 40 40 40 39 41 49 50 50 51 51 53 53 53 53 53 53
52 52 51 50 51 52 52 51 50 50 50 51 51 51 50 50 50 51 50 51 51 52 52 52 53 46 39 40 40 39 43 49 50 50 50 51 49 49 48 49 52 54
52 52 51 51 50 49 49 49 49 50 50 49 50 50 51 49 50 50 50 50 51 52 53 53 52 50 41 39 40 40 42 48 49 50 50 50 49 47 46 46 47 52
54 53 52 51 50 50 50 49 49 50 51 49 49 49 49 49 48 50 50 51 50 50 51 52 52 51 46 38 40 40 40 47 49 49 50 48 47 48 48 45 45 47
MSLP
1016.44 1016.64 1016.96 1017.24 1017.44 1017.64 1017.96 1018.20 1018.32 1018.36 1018.52 1018.60 1018.72 1018.88 1018.80 1018.84 1018.88 1018.80 1018.84 1018.88 1018.96 1019.04 1019.16 1019.16 1019.16 1019.28 1019.40 1019.48 1019.52 1019.52 1019.56 1019.68 1019.76 1019.80 1019.80 1019.80 1019.88 1019.88 1019.96 1020.04 1020.08 1020.20
1016.52 1016.72 1016.92 1017.16 1017.44 1017.72 1017.96 1018.08 1018.28 1018.36 1018.56 1018.64 1018.76 1018.92 1019.00 1018.96 1018.92 1018.92 1019.00 1019.08 1019.16 1019.24 1019.24 1019.24 1019.28 1019.40 1019.52 1019.60 1019.64 1019.64 1019.68 1019.68 1019.84 1019.84 1019.80 1019.84 1019.96 1019.96 1020.04 1020.04 1020.08 1020.16
1016.60 1016.76 1016.96 1017.16 1017.44 1017.72 1017.96 1018.16 1018.32 1018.48 1018.64 1018.80 1018.92 1019.04 1019.16 1019.12 1019.12 1019.20 1019.24 1019.24 1019.28 1019.36 1019.36 1019.40 1019.48 1019.56 1019.64 1019.72 1019.76 1019.80 1019.84 1019.84 1019.96 1020.00 1019.96 1020.08 1020.08 1020.04 1020.16 1020.12 1020.08 1020.08
1016.60 1016.72 1016.92 1017.08 1017.32 1017.68 1018.00 1018.28 1018.52 1018.72 1018.88 1019.08 1019.12 1019.16 1019.20 1019.32 1019.32 1019.40 1019.40 1019.40 1019.48 1019.56 1019.60 1019.60 1019.64 1019.72 1019.80 1019.88 1019.92 1020.00 1020.00 1020.00 1020.12 1020.04 1020.12 1020.20 1020.12 1020.08 1020.16 1020.16 1020.28 1020.40
1016.68 1016.84 1016.92 1017.08 1017.36 1017.72 1018.00 1018.36 1018.72 1018.92 1019.04 1019.16 1019.28 1019.28 1019.36 1019.44 1019.52 1019.52 1019.56 1019.64 1019.68 1019.80 1019.80 1019.84 1019.84 1019.96 1020.00 1020.08 1020.08 1020.12 1020.12 1020.16 1020.20 1020.08 1020.16 1020.28 1020.28 1020.16 1020.24 1020.08 1020.12 1020.28
1016.88 1016.88 1017.00 1017.20 1017.52 1017.80 1018.16 1018.48 1018.80 1019.16 1019.36 1019.44 1019.48 1019.48 1019.48 1019.52 1019.60 1019.68 1019.72 1019.76 1019.84 1019.88 1020.00 1020.04 1020.08 1020.12 1020.16 1020.24 1020.32 1020.32 1020.32 1020.32 1020.32 1020.24 1020.32 1020.36 1020.40 1020.32 1020.24 1020.20 1020.20 1020.32
1017.08 1017.12 1017.28 1017.44 1017.68 1017.84 1018.28 1018.64 1018.96 1019.20 1019.36 1019.44 1019.60 1019.64 1019.64 1019.72 1019.76 1019.84 1019.88 1019.84 1019.92 1020.04 1020.12 1020.20 1020.24 1020.28 1020.36 1020.48 1020.52 1020.60 1020.60 1020.60 1020.60 1020.56 1020.56 1020.60 1020.48 1020.48 1020.40 1020.32 1020.36 1020.48
1017.28 1017.40 1017.56 1017.68 1017.84 1018.08 1018.40 1018.72 1018.96 1019.16 1019.28 1019.44 1019.56 1019.68 1019.64 1019.76 1019.84 1019.96 1020.00 1020.04 1020.08 1020.16 1020.24 1020.32 1020.36 1020.40 1020.56 1020.64 1020.72 1020.80 1020.84 1020.92 1020.84 1020.80 1020.80 1020.80 1020.64 1020.64 1020.60 1020.56 1020.52 1020.52
1017.36 1017.56 1017.64 1017.80 1018.00 1018.32 1018.56 1018.96 1019.20 1019.08 1019.12 1019.24 1019.48 1019.56 1019.60 1019.64 1019.84 1019.96 1020.04 1020.12 1020.16 1020.20 1020.32 1020.40 1020.40 1020.48 1020.68 1020.76 1020.88 1020.96 1021.00 1021.04 1020.96 1020.88 1020.80 1020.76 1020.72 1020.72 1020.64 1020.60 1020.56 1020.60
1017.20 1017.24 1017.36 1017.60 1018.00 1018.28 1018.44 1018.92 1019.12 1019.00 1018.96 1019.08 1019.20 1019.40 1019.56 1019.72 1019.84 1020.00 1020.08 1020.16 1020.20 1020.32 1020.44 1020.48 1020.52 1020.60 1020.76 1020.76 1020.80 1020.88 1020.96 1020.96 1020.96 1020.92 1020.84 1020.76 1020.72 1020.72 1020.64 1020.56 1020.56 1020.68
1017.16 1017.28 1017.52 1018.00 1018.36 1018.60 1018.96 1019.08 1019.00 1018.96 1019.04 1019.08 1019.28 1019.48 1019.64 1019.80 1020.00 1020.08 1020.20 1020.32 1020.36 1020.36 1020.48 1020.56 1020.56 1020.56 1020.60 1020.68 1020.80 1020.88 1020.88 1020.84 1020.84 1020.84 1020.88 1020.84 1020.72 1020.68 1020.60 1020.64 1020.68 1020.76
1017.80 1018.20 1018.56 1018.72 1018.88 1018.92 1019.08 1019.00 1019.16 1019.28 1019.32 1019.32 1019.36 1019.48 1019.64 1019.76 1019.92 1020.12 1020.16 1020.28 1020.32 1020.36 1020.36 1020.44 1020.44 1020.44 1020.48 1020.64 1020.76 1020.80 1020.76 1020.76 1020.88 1020.88 1020.88 1020.96 1021.00 1021.04 1021.00 1020.92 1020.92 1021.04
1018.56 1018.56 1018.76 1018.96 1018.96 1018.88 1018.80 1018.84 1018.88 1018.88 1018.88 1018.92 1018.92 1019.12 1019.36 1019.56 1019.72 1019.88 1019.96 1020.00 1020.04 1020.12 1020.20 1020.28 1020.32 1020.40 1020.44 1020.56 1020.68 1020.68 1020.64 1020.80 1020.92 1020.92 1021.00 1021.00 1021.04 1021.00 1021.08 1021.08 1021.12 1021.16
1018.28 1018.12 1018.04 1018.40 1018.60 1018.64 1018.68 1018.80 1019.00 1019.04 1018.88 1018.80 1018.84 1018.88 1019.04 1019.24 1019.44 1019.52 1019.68 1019.72 1019.80 1020.00 1020.08 1020.24 1020.36 1020.44 1020.52 1020.60 1020.64 1020.68 1020.76 1020.88 1020.84 1020.92 1020.96 1021.00 1021.04 1021.08 1021.08 1021.16 1021.24 1021.28
1018.00 1018.04 1018.20 1018.20 1018.28 1018.56 1018.84 1018.96 1019.04 1019.20 1019.20 1019.16 1019.20 1019.20 1019.24 1019.32 1019.44 1019.60 1019.72 1019.88 1019.96 1019.96 1020.08 1020.20 1020.24 1020.32 1020.48 1020.56 1020.60 1020.68 1020.68 1020.76 1020.84 1020.84 1020.80 1020.92 1021.08 1021.08 1021.12 1021.16 1021.24 1021.28
1017.80 1017.76 1017.88 1018.16 1018.48 1018.60 1018.84 1018.92 1018.76 1018.84 1018.96 1019.04 1019.16 1019.24 1019.32 1019.36 1019.48 1019.52 1019.60 1019.68 1019.88 1020.04 1020.08 1020.12 1020.24 1020.32 1020.44 1020.36 1020.28 1020.36 1020.52 1020.68 1020.84 1020.88 1020.84 1020.88 1020.96 1021.08 1021.12 1021.24 1021.24 1021.28
1018.00 1018.08 1018.20 1018.28 1018.64 1018.72 1018.84 1018.96 1018.92 1019.00 1019.12 1019.20 1019.24 1019.24 1019.28 1019.32 1019.40 1019.52 1019.64 1019.72 1019.76 1019.92 1020.12 1020.20 1020.28 1020.40 1020.48 1020.36 1020.24 1020.20 1020.28 1020.40 1020.52 1020.72 1020.80 1020.88 1020.96 1020.96 1021.04 1021.16 1021.24 1021.28
1018.24 1018.28 1018.48 1018.72 1018.84 1018.92 1019.08 1019.16 1019.20 1019.24 1019.32 1019.44 1019.52 1019.52 1019.56 1019.56 1019.52 1019.48 1019.52 1019.68 1019.84 1020.00 1020.04 1020.16 1020.32 1020.56 1020.52 1020.32 1020.24 1020.24 1020.24 1020.28 1020.44 1020.52 1020.60 1020.68 1020.80 1020.88 1020.96 1021.12 1021.16 1021.24
1018.52 1018.48 1018.60 1018.76 1019.00 1019.08 1019.24 1019.40 1019.52 1019.68 1019.76 1019.80 1019.80 1019.92 1019.80 1019.64 1019.72 1019.76 1019.72 1019.68 1019.72 1019.84 1019.92 1020.16 1020.24 1020.60 1020.56 1020.44 1020.32 1020.28 1020.24 1020.24 1020.32 1020.44 1020.52 1020.64 1020.72 1020.76 1020.88 1021.00 1021.08 1021.16
1018.80 1018.92 1018.96 1019.12 1019.28 1019.40 1019.48 1019.56 1019.68 1019.80 1019.84 1019.84 1019.88 1019.80 1019.84 1019.96 1020.00 1020.20 1020.16 1020.04 1019.92 1019.80 1020.08 1020.36 1020.32 1020.56 1020.68 1020.60 1020.56 1020.40 1020.36 1020.32 1020.28 1020.32 1020.36 1020.48 1020.56 1020.64 1020.76 1020.80 1020.84 1020.96
1018.84 1018.76 1018.84 1019.04 1019.32 1019.48 1019.52 1019.52 1019.64 1019.72 1019.80 1019.92 1019.76 1019.64 1019.60 1019.60 1019.76 1020.00 1020.00 1019.96 1020.12 1020.20 1020.16 1020.28 1020.12 1020.32 1020.40 1020.32 1020.44 1020.44 1020.40 1020.40 1020.28 1020.36 1020.40 1020.44 1020.52 1020.56 1020.60 1020.60 1020.68 1020.84
1019.08 1019.08 1019.12 1019.00 1019.00 1019.12 1019.28 1019.32 1019.48 1019.72 1019.96 1019.96 1020.04 1019.96 1019.92 1019.76 1019.64 1019.56 1019.60 1019.76 1019.80 1019.88 1019.96 1020.00 1020.56 1020.88 1020.68 1020.56 1020.64 1020.60 1020.60 1020.48 1020.36 1020.24 1020.28 1020.40 1020.48 1020.52 1020.56 1020.60 1020.60 1020.76
1019.52 1019.36 1019.28 1019.20 1019.24 1019.20 1019.28 1019.28 1019.32 1019.44 1019.52 1019.68 1019.84 1020.00 1019.88 1019.68 1019.52 1019.52 1019.60 1019.68 1019.68 1019.68 1019.72 1019.60 1020.28 1020.68 1020.60 1020.60 1020.68 1020.92 1020.96 1020.72 1020.56 1020.48 1020.44 1020.40 1020.32 1020.36 1020.52 1020.56 1020.60 1020.68
1019.92 1019.88 1019.84 1019.80 1019.68 1019.64 1019.60 1019.56 1019.64 1019.76 1019.76 1019.76 1019.64 1019.68 1019.84 1020.08 1020.20 1019.92 1019.76 1019.68 1019.64 1019.64 1019.56 1019.52 1019.44 1019.96 1020.40 1020.56 1020.72 1020.88 1020.76 1020.56 1020.68 1020.64 1020.48 1020.32 1020.24 1020.40 1020.52 1020.56 1020.52 1020.52
1020.28 1020.32 1020.40 1020.40 1020.40 1020.28 1020.08 1019.88 1019.72 1019.64 1019.68 1019.64 1019.64 1019.72 1019.76 1019.84 1019.88 1020.00 1020.12 1020.16 1019.92 1019.64 1019.56 1019.52 1019.44 1019.56 1020.00 1020.20 1020.40 1020.56 1020.84 1020.80 1020.76 1020.64 1020.44 1020.32 1020.32 1020.40 1020.64 1020.76 1020.64 1020.52
1020.60 1020.60 1020.68 1020.76 1020.80 1020.64 1020.48 1020.36 1020.24 1020.12 1019.92 1019.80 1019.72 1019.88 1019.84 1019.92 1020.04 1020.00 1019.84 1019.76 1019.88 1020.00 1019.80 1019.64 1019.56 1019.44 1019.64 1019.88 1020.00 1020.20 1020.44 1020.60 1020.60 1020.44 1020.20 1020.16 1020.32 1020.36 1020.40 1020.68 1020.80 1020.60
Wind_Speed
7 6 7 7 7 7 7 7 5 6 5 5 6 3 5 4 3 4 4 4 5 6 5 4 5 5 5 4 4 4 4 4 3 3 5 5 4 4 5 4 4 5
7 7 6 6 6 6 6 6 6 7 5 4 4 4 2 3 3 4 4 4 5 5 5 5 5 5 4 4 4 5 4 4 5 3 7 6 4 5 5 5 5 4
7 7 8 7 7 6 7 5 6 6 6 5 4 4 3 3 4 3 3 4 4 5 5 5 5 4 4 4 4 4 4 4 4 4 6 5 4 6 4 5 5 5
8 8 8 7 7 7 6 7 5 5 5 5 5 5 4 3 4 3 3 4 5 4 4 4 5 4 4 4 4 3 3 3 3 4 5 4 4 5 4 5 6 6
7 6 6 6 6 7 7 8 7 6 6 6 4 4 5 4 3 3 3 4 4 4 4 4 4 4 4 4 4 4 2 3 2 5 5 4 2 5 2 5 6 6
4 5 6 6 6 7 7 8 7 7 5 5 5 4 4 4 4 4 4 4 3 4 4 3 4 3 4 4 3 3 3 3 2 5 4 4 4 3 4 5 6 6
5 5 5 6 6 8 8 7 7 7 6 5 4 4 4 4 4 3 3 3 4 4 4 4 4 4 2 3 3 3 1 2 2 4 4 3 4 4 4 5 5 5
5 4 5 5 7 8 9 8 7 6 6 5 6 5 6 6 4 3 3 4 4 4 4 4 4 4 3 3 4 3 2 1 2 3 4 2 3 4 3 3 4 5
7 6 7 7 9 7 8 7 6 6 6 8 7 6 5 6 5 5 4 4 4 4 4 4 4 4 3 4 4 4 4 2 3 4 4 4 4 4 3 3 5 5
7 8 9 8 9 9 10 6 6 7 7 8 8 6 7 5 6 5 4 4 4 3 4 4 4 4 4 4 6 5 5 5 5 5 4 4 4 4 4 4 4 4
6 6 8 8 8 8 8 6 7 7 6 7 6 6 4 5 4 5 5 4 5 4 4 4 5 5 5 4 4 5 5 5 5 4 4 4 4 4 4 4 3 4
4 6 7 6 8 6 5 5 3 3 3 3 5 6 4 4 6 4 6 6 6 5 5 5 5 5 5 5 4 4 5 4 4 3 3 4 3 2 1 2 4 2
5 7 7 5 3 4 4 4 6 8 8 8 8 8 7 5 6 7 7 8 8 7 7 7 6 5 5 5 5 5 5 4 4 4 4 3 3 4 3 3 3 4
7 7 8 8 6 5 4 3 1 2 4 5 5 7 7 7 6 7 6 6 7 7 6 5 5 5 4 4 4 4 4 4 5 5 5 4 4 4 4 3 3 3
4 5 6 7 7 5 4 4 4 2 2 2 1 1 2 4 4 3 3 3 3 5 6 5 6 6 6 6 6 5 5 6 5 6 7 6 4 3 3 3 3 3
6 5 5 4 4 6 4 3 4 4 5 4 3 3 2 1 3 4 5 6 5 4 4 5 5 4 5 9 8 7 6 5 4 4 4 5 5 4 3 2 3 3
2 3 4 3 4 4 3 2 3 4 5 4 3 3 3 3 5 5 5 5 6 6 4 3 4 3 7 9 9 10 7 5 6 5 4 4 4 5 5 4 3 3
3 3 4 4 4 3 3 4 4 4 5 4 3 4 2 3 4 5 5 5 4 3 4 5 3 4 7 9 9 10 7 6 5 5 5 5 5 5 5 4 4 4
3 3 2 3 3 4 4 4 4 5 5 5 4 3 1 3 3 3 3 4 4 5 5 3 3 5 6 6 7 8 9 7 5 4 6 5 5 5 5 5 5 5
5 4 4 4 4 4 3 4 3 3 3 3 2 3 3 3 3 4 0 1 1 3 4 3 3 6 7 5 5 6 6 4 4 4 5 5 5 6 5 6 6 6
4 3 3 2 3 4 4 3 2 1 2 1 3 5 5 4 2 4 5 4 3 3 3 4 4 9 10 9 8 7 6 4 3 4 4 4 4 4 6 6 6 6
7 6 5 4 3 3 3 2 2 1 0 0 1 0 1 1 2 2 2 2 3 3 2 3 2 7 8 8 7 6 4 3 3 4 4 4 4 5 5 5 5 5
7 7 8 8 7 6 4 4 4 4 4 1 0 2 1 2 4 4 5 4 4 4 4 6 4 7 9 9 9 9 5 4 4 4 4 4 5 4 5 5 5 5
8 8 8 8 7 7 5 5 3 1 2 1 1 1 2 2 3 4 4 4 5 6 7 6 6 8 13 11 11 11 9 7 5 5 5 5 4 2 2 3 5 10
8 9 8 8 8 6 6 5 5 4 4 2 1 1 3 3 3 4 5 5 5 6 8 8 7 6 11 12 12 13 10 5 5 4 5 4 4 3 1 2 3 7
8 8 8 7 7 7 8 6 5 6 6 4 3 0 1 2 5 5 5 5 5 5 6 6 6 6 6 10 11 12 12 6 5 6 6 6 5 5 5 1 1 4
Wind_Direction
140 138 135 134 139 135 137 137 141 132 134 133 127 155 143 159 141 109 116 98 99 106 116 112 101 92 85 82 84 83 80 94 88 93 95 102 105 113 112 111 105 117
143 139 137 134 128 123 137 141 145 137 142 135 135 135 136 127 131 121 120 99 94 108 112 105 100 99 94 92 88 87 64 65 68 83 96 91 101 96 100 106 110 111
139 140 142 145 145 143 145 143 140 140 138 140 131 133 138 130 122 106 110 109 105 109 105 108 102 100 100 101 96 95 102 90 92 91 95 114 117 96 104 100 94 100
148 151 150 148 145 140 137 130 128 122 119 130 151 153 137 134 119 113 104 105 110 111 115 112 119 113 114 119 110 108 123 110 130 109 97 84 85 94 84 95 99 84
151 147 142 141 134 127 131 130 135 138 143 147 138 135 126 126 121 117 111 109 115 117 115 118 114 124 126 127 124 125 124 118 114 97 96 92 74 89 77 83 78 75
134 137 136 133 131 125 125 131 136 131 137 137 151 137 135 136 135 137 133 127 120 120 122 123 129 139 138 140 127 137 140 120 100 100 104 108 86 79 97 92 91 80
129 127 125 121 115 117 119 123 127 136 146 142 126 135 133 135 141 142 143 136 130 137 146 152 153 160 155 143 140 147 145 123 98 100 107 103 99 78 81 94 98 95
106 99 101 100 106 110 118 124 134 142 144 141 142 154 146 149 151 152 148 143 141 147 156 161 165 169 156 142 145 143 140 99 111 104 99 99 98 100 83 88 99 90
100 108 115 112 107 111 110 121 148 155 153 151 154 159 158 154 158 162 166 155 148 155 153 164 176 170 155 136 144 148 145 152 155 139 141 137 125 134 122 109 86 91
109 130 125 118 114 122 127 156 169 167 167 158 161 157 159 164 158 164 164 162 166 178 167 163 171 161 157 153 159 161 164 172 170 160 156 153 150 156 149 124 125 103
137 134 121 112 115 122 147 185 175 168 169 160 155 155 156 155 166 164 163 173 179 193 178 164 179 175 167 157 154 161 168 168 166 159 161 163 166 170 164 138 131 134
89 54 56 88 124 152 170 160 142 129 130 141 154 150 147 159 167 177 171 185 190 191 185 186 186 184 169 163 166 169 169 166 138 123 138 143 135 113 120 145 141 124
66 102 103 76 97 139 142 138 165 168 166 167 171 161 165 171 182 178 185 180 194 189 190 186 183 177 172 169 175 182 172 137 121 118 117 122 131 138 133 126 132 140
139 143 127 134 141 142 128 127 221 227 186 170 171 172 174 187 186 191 186 187 186 188 187 166 163 164 153 147 155 169 155 149 143 139 134 131 132 135 141 138 146 146
89 99 126 151 152 117 92 81 84 52 25 52 64 166 182 206 189 144 131 115 138 165 160 165 166 163 155 153 148 154 156 158 159 158 152 147 140 140 144 148 158 161
153 159 148 137 102 95 104 128 119 110 105 99 93 105 107 162 143 153 153 155 150 152 159 158 166 157 158 164 159 156 158 153 147 160 164 153 149 157 177 181 184 190
119 95 106 115 109 114 112 86 60 61 60 61 75 92 114 120 137 144 156 158 157 151 154 158 153 152 156 158 165 162 156 161 158 168 170 162 165 170 184 198 215 217
61 59 80 80 89 80 70 77 69 62 64 53 42 49 60 100 122 158 158 155 140 138 147 163 162 157 170 157 163 169 169 167 165 164 179 185 183 189 194 186 202 217
66 58 52 76 86 90 77 65 62 53 47 37 27 1 40 86 127 117 150 153 154 161 170 171 172 172 183 170 171 176 176 169 173 171 174 194 197 201 197 199 202 206
64 40 19 24 61 62 65 63 53 67 102 108 77 74 62 64 98 124 230 291 236 181 155 187 175 183 177 179 212 201 187 181 181 177 192 193 198 199 203 208 205 199
67 56 54 46 72 79 84 78 71 42 56 90 133 140 147 157 181 173 200 194 221 251 193 183 216 173 184 185 198 215 205 207 213 201 195 209 211 207 210 211 208 206
49 47 30 16 54 86 77 68 79 75 358 26 334 259 143 120 173 199 210 231 236 238 236 207 180 185 186 190 197 216 217 254 245 232 221 216 219 222 221 214 211 199
35 34 29 30 25 29 17 357 358 358 350 45 224 272 242 188 213 203 206 205 230 240 226 247 177 195 188 192 196 193 181 231 235 246 241 225 227 225 211 209 202 188
35 37 31 21 19 28 22 7 354 318 289 235 183 243 288 302 310 285 245 219 213 222 221 225 246 181 182 188 192 191 197 202 210 217 227 220 229 233 247 231 206 188
33 36 35 29 23 6 359 357 354 350 344 10 303 244 267 262 234 231 272 279 253 240 227 226 239 220 185 190 189 190 196 207 193 193 199 211 181 195 299 297 244 196
33 33 31 31 21 11 8 354 337 353 350 356 3 97 232 217 211 223 243 247 248 257 263 245 236 244 203 197 196 195 196 194 190 177 194 194 186 181 190 216 232 199